Regional Weather Roundup
Issued by NWS Jackson, KY

Home | Current Version | Previous Version | Graphics & Text | Print | Product List | Glossary On
Versions: 1 2 3 4 5 6 7 8 9 10 11 12 13 14 15 16 17 18 19 20 21 22 23 24 25 26 27 28 29 30 31 32 33 34 35 36 37 38 39 40 41 42 43 44 45 46 47 48 49 50
000
ASUS43 KJKL 251710
RWRJKL

EAST KENTUCKY HOURLY WEATHER ROUNDUP
NATIONAL WEATHER SERVICE JACKSON KY
100 PM EDT FRI MAY 25 2018

NOTE: "FAIR" INDICATES FEW OR NO CLOUDS BELOW 12,000 FEET WITH
NO SIGNIFICANT WEATHER AND/OR OBSTRUCTIONS TO VISIBILITY.

* THESE REPORTS ARE NOT UNDER NWS QUALITY CONTROL AND MAY NOT
  REPORT WEATHER SUCH AS PRECIPITATION AND FOG.

KYZ079-080-083-085-087-088-110-112-115-119-120-251800
...EASTERN KENTUCKY...

CITY           SKY/WX    TMP DP  RH WIND       PRES   REMARKS
JACKSON          N/A     82  68  62 VRB3      30.04F
LONDON           N/A     83  67  58 S5        30.03F
SOMERSET*      PTSUNNY   82  64  54 MISG      30.03F
MONTICELLO*      N/A     86  69  56 W12G20    30.04S HX  90
WILLIAMSBURG*    N/A     82  68  61 S5        30.03F
MIDDLESBORO*     N/A     82  67  60 S3        30.05F
HARLAN APT*    PTSUNNY   80  66  63 CALM      30.06S
PIKE CO APT*     N/A     80  68  65 E6        30.04F
BIG SANDY APT*   N/A     84  68  58 SW5       30.03F
MOREHEAD APT*    N/A     82  66  57 SW8       30.03F
ASHLAND*         N/A     83  70  64 CALM      29.99F
$$

KYZ035-036-041-042-044-050-067-078-099-251800
...CENTRAL KENTUCKY...

CITY           SKY/WX    TMP DP  RH WIND       PRES   REMARKS
MT STERLING*     N/A     82  64  54 E3        30.03F
FLEMING/MASON*   N/A     83  65  54 CALM      30.02F
DANVILLE*      PTSUNNY   81  63  54 W5        30.03F
LEXINGTON        N/A     82  63  52 SW8       30.02F
FRANKFORT        N/A     85  64  49 SW12      30.00F
LOUISVILLE       N/A     86  60  41 W6        29.99S
LEBANON*         N/A     82  63  51 SW5       30.01F
GLASGOW*       PTSUNNY   85  67  54 NW3       30.01S
BOWLING GREEN    N/A     85  64  49 S6        30.00S
$$

KYZ091>093-OHZ055-061-077-WVZ005-015-034-035-042-251800
...SOUTHERN OHIO/WEST VIRGINIA...

CITY           SKY/WX    TMP DP  RH WIND       PRES   REMARKS
COVINGTON        N/A     83  56  39 CALM      30.00F
COLUMBUS         N/A     83  55  38 VRB7      29.98F
DAYTON           N/A     81  56  42 S8        30.00F
WILMINGTON       N/A     81  61  50 SW5       29.99F
HUNTINGTON       N/A     82  67  60 S7        30.00F
CHARLESTON     PTSUNNY   82  66  58 SW7       30.01F
PINEVILLE*       N/A     82  63  52 MISG      30.11F
BECKLEY          N/A     77  61  57 S6        30.10F
BLUEFIELD        N/A     74  63  68 SE10G17   30.14F
LOGAN CO APT*    N/A     81  66  61 VRB3      30.05F
$$

VAZ002-007-008-TNZ017-027-036-066-071-251800
...SOUTHWEST VIRGINIA/EAST TENNESSEE...

CITY           SKY/WX    TMP DP  RH WIND       PRES   REMARKS
WISE*          CLOUDY    73  63  68 CALM      30.13F
JONESVILLE*    PTSUNNY   82  66  57 S3        30.08F
ABINGDON*        N/A     81  66  60 W5        30.09F
BRISTOL        PTSUNNY   80  68  66 VRB3      30.07F
MORRISTOWN*    PTSUNNY   82  66  57 NE5       30.04F
SEVIERVILLE*   SUNNY     82  66  57 NW5       30.03F
KNOXVILLE      PTSUNNY   83  68  60 SW9       30.03F
LAFOLLETTE*    SUNNY     84  66  54 S7G14     30.07F
OAK RIDGE        N/A     84  69  60 VRB3      30.05F
CROSSVILLE       N/A     78  67  68 S6        30.08F
NASHVILLE      PTSUNNY   89  65  44 SW7       30.00F HX  91
$$

...KEY TO REMARKS...
VSB - VISIBILITY IN MILES
WCI - WIND CHILL INDEX
HX  - HEAT INDEX

$$



USA.gov is the U.S. government's official web portal to all federal, state and local government web resources and services.